TimeAKST,TemperatureF,Dew PointF,Humidity,Sea Level PressureIn,VisibilityMPH,Wind Direction,Wind SpeedMPH,Gust SpeedMPH,PrecipitationIn,Events,Conditions,WindDirDegrees,DateUTC
12:39 AM,10.4,8.6,92,29.49,4.0,ENE,5.8,-,0.00,Snow,Light Snow,60,2013-12-13 09:39:00
12:53 AM,10.9,9.0,92,29.51,4.0,NE,6.9,-,0.00,Snow,Light Snow,50,2013-12-13 09:53:00
1:53 AM,12.0,9.0,88,29.51,10.0,NE,10.4,-,0.00,,Overcast,50,2013-12-13 10:53:00
3:53 AM,14.0,10.9,88,29.48,10.0,NNE,12.7,-,0.00,,Overcast,30,2013-12-13 12:53:00
4:53 AM,15.1,10.9,84,29.44,10.0,NNE,19.6,-,N/A,,Mostly Cloudy,30,2013-12-13 13:53:00
5:53 AM,16.0,12.0,84,29.43,10.0,NNE,13.8,-,N/A,,Overcast,30,2013-12-13 14:53:00
6:53 AM,16.0,10.0,77,29.41,10.0,NNE,19.6,25.3,0.00,,Overcast,30,2013-12-13 15:53:00
7:53 AM,17.1,10.9,77,29.38,10.0,NNE,19.6,-,0.00,,Overcast,20,2013-12-13 16:53:00
8:53 AM,18.0,10.9,74,29.33,10.0,North,20.7,-,0.00,Snow,Light Snow,10,2013-12-13 17:53:00
9:53 AM,18.0,10.9,74,29.31,10.0,North,23.0,31.1,0.00,Snow,Light Snow,10,2013-12-13 18:53:00
10:30 AM,17.6,12.2,79,29.28,1.8,NNE,24.2,34.5,0.00,Snow,Light Snow,20,2013-12-13 19:30:00
10:39 AM,17.6,12.2,79,29.28,1.0,North,26.5,33.4,0.00,Snow,Light Snow,10,2013-12-13 19:39:00
10:49 AM,17.6,14.0,86,29.28,1.0,NNE,26.5,33.4,0.00,Snow,Light Snow,20,2013-12-13 19:49:00
10:53 AM,17.1,14.0,88,29.28,1.0,NNE,21.9,33.4,0.00,Snow,Light Snow,20,2013-12-13 19:53:00
11:53 AM,17.1,15.1,92,29.27,1.0,NNE,17.3,-,0.00,Snow,Light Snow,20,2013-12-13 20:53:00
11:58 AM,17.6,15.8,93,29.25,0.8,NNE,16.1,-,0.00,Snow,Light Snow,20,2013-12-13 20:58:00
12:34 PM,17.6,15.8,93,29.23,0.8,NNE,17.3,-,0.00,Snow,Light Snow,20,2013-12-13 21:34:00
12:53 PM,17.1,15.1,92,29.23,0.8,North,17.3,24.2,0.00,Snow,Light Snow,10,2013-12-13 21:53:00
1:05 PM,17.6,15.8,93,29.21,0.8,North,16.1,-,0.00,Snow,Light Snow,10,2013-12-13 22:05:00
1:53 PM,18.0,17.1,96,29.18,0.8,NNE,17.3,-,0.00,Snow,Light Snow,20,2013-12-13 22:53:00
2:53 PM,19.0,18.0,96,29.13,0.8,NNE,15.0,-,0.00,Snow,Light Snow,20,2013-12-13 23:53:00
3:53 PM,19.9,19.0,96,29.08,0.8,NNE,12.7,-,0.00,Snow,Light Snow,30,2013-12-14 00:53:00
4:53 PM,21.0,19.9,96,29.05,0.8,NNE,15.0,-,0.00,Snow,Light Snow,20,2013-12-14 01:53:00
5:04 PM,21.2,19.4,93,29.03,1.0,NNE,17.3,-,0.00,Snow,Light Snow,30,2013-12-14 02:04:00
5:12 PM,21.2,19.4,93,29.03,0.8,NNE,15.0,-,0.00,Snow,Light Snow,20,2013-12-14 02:12:00
5:53 PM,21.0,19.9,96,29.02,0.8,NNE,17.3,23.0,0.00,Snow,Snow,20,2013-12-14 02:53:00
6:53 PM,21.9,19.9,92,28.99,0.8,NNE,18.4,-,0.00,Snow,Snow,20,2013-12-14 03:53:00
7:53 PM,21.9,21.0,96,28.96,0.5,NNE,17.3,-,0.00,Fog-Snow,Snow,20,2013-12-14 04:53:00
8:37 PM,21.2,21.2,100,28.93,0.8,NNE,12.7,-,0.00,Snow,Snow,30,2013-12-14 05:37:00
8:53 PM,23.0,21.9,96,28.94,0.8,NNE,12.7,-,0.00,Snow,Snow,30,2013-12-14 05:53:00
9:00 PM,23.0,21.2,93,28.92,1.0,NNE,12.7,-,0.00,Snow,Snow,20,2013-12-14 06:00:00
9:15 PM,23.0,21.2,93,28.92,1.2,NNE,9.2,-,0.00,Snow,Snow,30,2013-12-14 06:15:00
9:53 PM,23.0,21.9,96,28.92,1.8,NE,9.2,-,0.00,Snow,Snow,40,2013-12-14 06:53:00
10:23 PM,23.0,21.2,93,28.89,2.0,NNE,8.1,-,0.00,Snow,Snow,20,2013-12-14 07:23:00
10:45 PM,17.6,15.8,93,28.89,1.8,South,4.6,-,0.00,Snow,Snow,170,2013-12-14 07:45:00
10:53 PM,17.1,16.0,96,28.90,1.8,SSE,4.6,-,0.00,Snow,Snow,160,2013-12-14 07:53:00
11:02 PM,17.6,15.8,93,28.89,2.5,South,3.5,-,0.00,Snow,Snow,170,2013-12-14 08:02:00
11:41 PM,17.6,15.8,93,28.88,3.0,South,4.6,-,0.00,Snow,Snow,190,2013-12-14 08:41:00
11:53 PM,18.0,17.1,96,28.89,4.0,South,4.6,-,0.00,Snow,Snow,180,2013-12-14 08:53:00